Marrakech, Morocco

9:51 PM WET on February 20, 2018 (GMT +0000)
Marrakech

Weather History for GMMX - January, 2013

Change the Weather History Date:

Tuesday, January 8, 2013

  Actual Average Record
Temperature  
Mean Temperature 53 °F -  
Max Temperature 70 °F 64 °F 80 °F (2014)
Min Temperature 36 °F 43 °F 35 °F (2009)
Degree Days  
Heating Degree Days 12    
Growing Degree Days 3 (Base 50)    
Moisture  
Dew Point 30 °F    
Average Humidity 47    
Maximum Humidity 75    
Minimum Humidity 8    
Precipitation  
Precipitation 0.00 in 0.04 in - ()
Sea Level Pressure  
Sea Level Pressure 30.34 in    
Wind  
Wind Speed 3 mph ()    
Max Wind Speed 8 mph    
Max Gust Speed -    
Visibility 5.8 miles    
Events      
Averages and records for this station are not official NWS values.
T = Trace of Precipitation, MM = Missing Value Source: Averaged Metar Reports

Daily Weather History Graph

Daily Weather History Graph

Search for Another Location

Airport or City:

Trip Planner

Search our weather history database for the weather conditions in past years. The results will help you decide how hot, cold, wet, or windy it might be!

Date:

Astronomy

Jan. 08, 2013 Rise Set
Actual Time 7:32 AM WET 5:45 PM WET
Civil Twilight 7:06 AM WET 6:11 PM WET
Nautical Twilight 6:35 AM WET 6:42 PM WET
Astronomical Twilight 6:06 AM WET 7:11 PM WET
Moon 3:51 AM WET (1/8) 2:34 PM WET (1/8)
Length of Visible Light 11h 05m
Length of Day
10h 12m
Waning Crescent, 15% of the Moon is Illuminated
Jan 8
Waning Crescent
Jan 11
New
Jan 18
First Quarter
Jan 27
Full
Feb 3
Last Quarter

Hourly Weather History & Observations

Time (WET) Temp. Windchill Dew Point Humidity Pressure Visibility Wind Dir Wind Speed Gust Speed Precip Events Conditions
12:00 AM 43 °F - 33 °F 56% 30.40 in 6 mi SE 3.5 mph - -  
12:00 AM 42.8 °F 41.1 °F 33.8 °F 70% 30.36 in - SE 3.5 mph - N/A   Clear
12:30 AM 42.8 °F 41.1 °F 33.8 °F 70% 30.36 in - East 3.5 mph - N/A   Clear
1:00 AM 42.8 °F 41.1 °F 33.8 °F 70% 30.33 in - NE 3.5 mph - N/A   Clear
1:30 AM 42.8 °F 40.1 °F 33.8 °F 70% 30.33 in - East 4.6 mph - N/A   Clear
2:00 AM 42.8 °F 40.1 °F 33.8 °F 70% 30.33 in - ESE 4.6 mph - N/A   Clear
2:30 AM 42.8 °F - 33.8 °F 70% 30.33 in - ENE 2.3 mph - N/A   Clear
3:00 AM 42 °F - 33 °F 59% 30.40 in 6 mi East 2.3 mph - -  
3:00 AM 42.8 °F - 33.8 °F 70% 30.33 in - East 2.3 mph - N/A   Clear
3:30 AM 41.0 °F - 32.0 °F 70% 30.36 in - Calm Calm - N/A   Clear
4:00 AM 39.2 °F - 30.2 °F 70% 30.33 in 6.2 mi Calm Calm - N/A   Unknown
4:30 AM 42.8 °F - 32.0 °F 66% 30.33 in - Calm Calm - N/A   Clear
5:00 AM 44.6 °F - 32.0 °F 61% 30.33 in - Calm Calm - N/A   Clear
5:30 AM 42.8 °F - 30.2 °F 61% 30.33 in - Calm Calm - N/A   Clear
6:00 AM 39 °F - 31 °F 63% 30.40 in 6 mi ESE 3.5 mph - -  
6:00 AM 39.2 °F 37.0 °F 30.2 °F 70% 30.33 in - ESE 3.5 mph - N/A   Clear
6:30 AM 39.2 °F 35.9 °F 30.2 °F 70% 30.33 in - ENE 4.6 mph - N/A   Clear
7:00 AM 39.2 °F 37.0 °F 32.0 °F 75% 30.36 in - NE 3.5 mph - N/A   Clear
7:30 AM 39.2 °F 35.9 °F 32.0 °F 75% 30.36 in - East 4.6 mph - N/A   Clear
8:00 AM 37.4 °F 32.1 °F 30.2 °F 75% 30.36 in 6.2 mi East 6.9 mph - N/A   Partly Cloudy
8:30 AM 39.2 °F 35.0 °F 30.2 °F 70% 30.39 in 6.2 mi East 5.8 mph - N/A   Partly Cloudy
9:00 AM 44 °F - 30 °F 45% 30.44 in 6 mi ESE 5.8 mph - -   Scattered Clouds
9:00 AM 42.8 °F 39.3 °F 30.2 °F 61% 30.39 in 6.2 mi ESE 5.8 mph - N/A   Partly Cloudy
9:30 AM 48.2 °F - 30.2 °F 50% 30.39 in 6.2 mi ESE 4.6 mph - N/A   Partly Cloudy
10:00 AM 51.8 °F - 32.0 °F 47% 30.39 in - ESE 4.6 mph - N/A   Clear
10:30 AM 55.4 °F - 33.8 °F 44% 30.39 in - East 4.6 mph - N/A   Clear
11:00 AM 59.0 °F - 32.0 °F 36% 30.39 in - East 3.5 mph - N/A   Clear
11:30 AM 60.8 °F - 33.8 °F 36% 30.39 in - Variable 3.5 mph - N/A   Clear
12:00 PM 62 °F - 31 °F 20% 30.35 in 6 mi NE 5.8 mph - -   Clear
12:00 PM 62.6 °F - 32.0 °F 32% 30.36 in - NE 5.8 mph - N/A   Clear
12:30 PM 64.4 °F - 33.8 °F 32% 30.36 in - NNE 5.8 mph - N/A   Clear
1:00 PM 66.2 °F - 32.0 °F 28% 30.36 in - NE 5.8 mph - N/A   Clear
1:30 PM 66.2 °F - 32.0 °F 28% 30.33 in - North 4.6 mph - N/A   Clear
2:00 PM 68.0 °F - 26.6 °F 21% 30.33 in - NE 3.5 mph - N/A   Clear
2:30 PM 68.0 °F - 26.6 °F 21% 30.33 in - Calm Calm - N/A   Clear
3:00 PM 70 °F - 22 °F 8% 30.28 in 6 mi NE 2.3 mph - -   Clear
3:00 PM 69.8 °F - 23.0 °F 17% 30.33 in - NE 3.5 mph - N/A   Clear
3:30 PM 69.8 °F - 19.4 °F 15% 30.30 in - ENE 3.5 mph - N/A   Clear
4:00 PM 69.8 °F - 19.4 °F 15% 30.30 in - ENE 3.5 mph - N/A   Clear
4:30 PM 69.8 °F - 21.2 °F 16% 30.30 in - Calm Calm - N/A   Clear
5:00 PM 69.8 °F - 21.2 °F 16% 30.30 in - Calm Calm - N/A   Clear
6:00 PM 63 °F - 26 °F 14% 30.29 in 6 mi Calm Calm - -   Clear
6:00 PM 64.4 °F - 24.8 °F 22% 30.30 in - ENE 1.2 mph - N/A   Clear
6:30 PM 60.8 °F - 26.6 °F 27% 30.30 in - Calm Calm - N/A   Clear
7:00 PM 59.0 °F - 28.4 °F 31% 30.30 in - NE 1.2 mph - N/A   Clear
7:30 PM 57.2 °F - 28.4 °F 33% 30.33 in 5.0 mi Variable 1.2 mph - N/A   Unknown
8:00 PM 55.4 °F - 30.2 °F 38% 30.33 in 5.6 mi ENE 4.6 mph - N/A   Unknown
8:30 PM 51.8 °F - 32.0 °F 47% 30.33 in 5.0 mi East 6.9 mph - N/A   Unknown
9:00 PM 53 °F - 32 °F 32% 30.35 in 6 mi East 5.8 mph - -  
9:00 PM 51.8 °F - 32.0 °F 47% 30.33 in - East 5.8 mph - N/A   Clear
9:30 PM 50.0 °F - 32.0 °F 50% 30.33 in 5.0 mi East 5.8 mph - N/A   Unknown
10:00 PM 46.4 °F 43.5 °F 32.0 °F 57% 30.33 in 4.3 mi East 5.8 mph - N/A   Unknown
10:30 PM 48.2 °F - 32.0 °F 54% 30.33 in - East 4.6 mph - N/A   Clear
11:00 PM 44.6 °F 40.2 °F 32.0 °F 61% 30.33 in - East 8.1 mph - N/A   Clear
11:30 PM 42.8 °F 40.1 °F 32.0 °F 66% 30.33 in - East 4.6 mph - N/A   Clear